User: anonymous   Login
Location: Unspecified
(0.0000°N, 0.0000°E)
Time: 20:40:06
(UTC+00:00)
Language:

Vostok-2 - Orbit

View from above orbital plane
View from above orbital plane
View from above satellite
View from above satellite

Ground track
Ground track

The orbit data is extracted from the following two-line orbital elements,

1 00168U 61019  A 61218.85853340 -.00718067 +00000-0 +00000-0 0 00032
2 00168 064.8394 077.9109 0064437 079.6523 280.7169 16.28592179000104
Epoch (UTC): 06 August 1961 20:36:17
Eccentricity: 0.0064437
inclination: 64.8394°
perigee height: 154 km
apogee height: 238 km
right ascension of ascending node: 77.9109°
argument of perigee: 79.6523°
revolutions per day: 16.28592179
mean anomaly at epoch: 280.7169°
orbit number at epoch: 10

The dashed part of the orbit path shows where the satellite is in the earth's shadow,  

DLR